Time,TemperatureF,DewpointF,PressureIn,WindDirection,WindDirectionDegrees,WindSpeedMPH,WindSpeedGustMPH,Humidity,HourlyPrecipIn,Conditions,Clouds,dailyrainin,SoftwareType,DateUTC
2013-01-23 00:12:00,57.9,26.7,29.92,West,270,0.0,-999.0,30,-99.99,,,0.00,Acu-Link.com,2013-01-23 08:12:00,
2013-01-23 00:28:00,55.9,27.9,29.91,North,0,1.7,-999.0,34,-99.99,,,0.00,Acu-Link.com,2013-01-23 08:28:00,
2013-01-23 01:00:00,55.6,27.7,29.91,NE,45,2.7,-999.0,34,-99.99,,,0.00,Acu-Link.com,2013-01-23 09:00:00,
2013-01-23 01:17:00,56.8,25.7,29.91,NE,45,1.7,-999.0,30,-99.99,,,0.00,Acu-Link.com,2013-01-23 09:17:00,
2013-01-23 01:32:00,57.9,25.0,29.91,NNE,22,2.7,-999.0,28,-99.99,,,0.00,Acu-Link.com,2013-01-23 09:32:00,
2013-01-23 01:47:00,58.3,26.2,29.91,NNE,22,2.2,-999.0,29,-99.99,,,0.00,Acu-Link.com,2013-01-23 09:47:00,
2013-01-23 02:03:00,58.3,26.2,29.91,NNE,22,2.2,-999.0,29,-99.99,,,0.00,Acu-Link.com,2013-01-23 10:03:00,
2013-01-23 02:18:00,59.0,25.9,29.90,NNE,22,2.2,-999.0,28,-99.99,,,0.00,Acu-Link.com,2013-01-23 10:18:00,
2013-01-23 02:33:00,59.7,25.7,29.91,East,90,0.0,-999.0,27,-99.99,,,0.00,Acu-Link.com,2013-01-23 10:33:00,
2013-01-23 02:48:00,58.5,27.2,29.90,NNE,22,0.0,-999.0,30,-99.99,,,0.00,Acu-Link.com,2013-01-23 10:48:00,
2013-01-23 03:03:00,57.6,28.7,29.90,NNE,22,1.7,-999.0,33,-99.99,,,0.00,Acu-Link.com,2013-01-23 11:03:00,
2013-01-23 03:18:00,56.8,29.4,29.90,NNW,337,0.0,-999.0,35,-99.99,,,0.00,Acu-Link.com,2013-01-23 11:18:00,
2013-01-23 03:49:00,56.1,29.5,29.89,NNW,337,2.7,-999.0,36,-99.99,,,0.00,Acu-Link.com,2013-01-23 11:49:00,
2013-01-23 04:04:00,55.8,31.2,29.89,NE,45,1.7,-999.0,39,-99.99,,,0.00,Acu-Link.com,2013-01-23 12:04:00,
2013-01-23 04:19:00,56.1,32.1,29.89,NE,45,1.7,-999.0,40,-99.99,,,0.00,Acu-Link.com,2013-01-23 12:19:00,
2013-01-23 04:34:00,55.8,32.5,29.89,NNW,337,1.1,-999.0,41,-99.99,,,0.00,Acu-Link.com,2013-01-23 12:34:00,
2013-01-23 04:49:00,55.8,33.6,29.89,NE,45,2.2,-999.0,43,-99.99,,,0.00,Acu-Link.com,2013-01-23 12:49:00,
2013-01-23 05:04:00,56.3,34.7,29.88,East,90,1.7,-999.0,44,-99.99,,,0.00,Acu-Link.com,2013-01-23 13:04:00,
2013-01-23 05:19:00,57.2,34.9,29.89,NNE,22,1.7,-999.0,43,-99.99,,,0.00,Acu-Link.com,2013-01-23 13:19:00,
2013-01-23 05:34:00,57.4,35.7,29.89,WNW,292,0.0,-999.0,44,-99.99,,,0.00,Acu-Link.com,2013-01-23 13:34:00,
2013-01-23 05:49:00,57.7,34.8,29.89,NE,45,2.7,-999.0,42,-99.99,,,0.00,Acu-Link.com,2013-01-23 13:49:00,
2013-01-23 06:05:00,59.9,28.4,29.90,NNE,22,1.1,-999.0,30,-99.99,,,0.00,Acu-Link.com,2013-01-23 14:05:00,
2013-01-23 06:20:00,61.9,28.4,29.90,ESE,112,2.2,-999.0,28,-99.99,,,0.00,Acu-Link.com,2013-01-23 14:20:00,
2013-01-23 06:35:00,60.3,32.5,29.91,East,90,1.7,-999.0,35,-99.99,,,0.00,Acu-Link.com,2013-01-23 14:35:00,
2013-01-23 06:50:00,59.9,33.6,29.91,North,0,2.2,-999.0,37,-99.99,,,0.00,Acu-Link.com,2013-01-23 14:50:00,
2013-01-23 07:05:00,59.0,35.3,29.91,NNE,22,2.2,-999.0,41,-99.99,,,0.00,Acu-Link.com,2013-01-23 15:05:00,
2013-01-23 07:20:00,60.1,33.1,29.91,NE,45,2.7,-999.0,36,-99.99,,,0.00,Acu-Link.com,2013-01-23 15:20:00,
2013-01-23 07:35:00,62.8,31.7,29.90,NNE,22,2.7,-999.0,31,-99.99,,,0.00,Acu-Link.com,2013-01-23 15:35:00,
2013-01-23 07:50:00,62.8,34.0,29.90,NNE,22,1.7,-999.0,34,-99.99,,,0.00,Acu-Link.com,2013-01-23 15:50:00,
2013-01-23 08:05:00,61.7,35.8,29.91,NE,45,3.2,-999.0,38,-99.99,,,0.00,Acu-Link.com,2013-01-23 16:05:00,
2013-01-23 08:21:00,61.7,39.6,29.91,NE,45,2.2,-999.0,44,-99.99,,,0.00,Acu-Link.com,2013-01-23 16:21:00,
2013-01-23 08:36:00,63.5,36.8,29.91,ENE,67,2.2,-999.0,37,-99.99,,,0.00,Acu-Link.com,2013-01-23 16:36:00,
2013-01-23 08:54:00,64.9,37.3,29.92,NE,45,0.0,-999.0,36,-99.99,,,0.00,Acu-Link.com,2013-01-23 16:54:00,
2013-01-23 09:10:00,67.3,36.4,29.92,NE,45,1.7,-999.0,32,-99.99,,,0.00,Acu-Link.com,2013-01-23 17:10:00,
2013-01-23 09:25:00,69.3,36.5,29.93,NNE,22,4.2,-999.0,30,-99.99,,,0.00,Acu-Link.com,2013-01-23 17:25:00,
2013-01-23 09:40:00,71.8,40.3,29.92,South,180,2.7,-999.0,32,-99.99,,,0.00,Acu-Link.com,2013-01-23 17:40:00,
2013-01-23 09:55:00,72.5,38.4,29.93,ENE,67,6.3,-999.0,29,-99.99,,,0.00,Acu-Link.com,2013-01-23 17:55:00,
2013-01-23 10:11:00,72.3,38.3,29.93,ENE,67,2.7,-999.0,29,-99.99,,,0.00,Acu-Link.com,2013-01-23 18:11:00,
2013-01-23 10:26:00,72.9,37.9,29.94,ESE,112,3.2,-999.0,28,-99.99,,,0.00,Acu-Link.com,2013-01-23 18:26:00,
2013-01-23 10:41:00,73.6,36.6,29.93,NNE,22,2.7,-999.0,26,-99.99,,,0.00,Acu-Link.com,2013-01-23 18:41:00,
2013-01-23 10:56:00,74.1,38.9,29.93,SSE,157,3.2,-999.0,28,-99.99,,,0.00,Acu-Link.com,2013-01-23 18:56:00,
2013-01-23 11:11:00,74.3,39.1,29.92,SSE,157,0.0,-999.0,28,-99.99,,,0.00,Acu-Link.com,2013-01-23 19:11:00,
2013-01-23 11:26:00,74.3,39.1,29.91,ESE,112,1.1,-999.0,28,-99.99,,,0.00,Acu-Link.com,2013-01-23 19:26:00,
2013-01-23 11:41:00,75.2,37.0,29.91,ESE,112,3.7,-999.0,25,-99.99,,,0.00,Acu-Link.com,2013-01-23 19:41:00,
2013-01-23 11:56:00,75.4,37.1,29.90,East,90,2.2,-999.0,25,-99.99,,,0.00,Acu-Link.com,2013-01-23 19:56:00,
2013-01-23 12:11:00,75.7,36.3,29.89,ENE,67,0.0,-999.0,24,-99.99,,,0.00,Acu-Link.com,2013-01-23 20:11:00,
2013-01-23 12:27:00,76.1,37.7,29.89,NNE,22,0.0,-999.0,25,-99.99,,,0.00,Acu-Link.com,2013-01-23 20:27:00,
2013-01-23 12:42:00,77.4,36.7,29.89,SE,135,1.1,-999.0,23,-99.99,,,0.00,Acu-Link.com,2013-01-23 20:42:00,
2013-01-23 12:57:00,77.2,38.6,29.89,South,180,0.0,-999.0,25,-99.99,,,0.00,Acu-Link.com,2013-01-23 20:57:00,
2013-01-23 13:12:00,75.9,40.4,29.88,SSE,157,0.0,-999.0,28,-99.99,,,0.00,Acu-Link.com,2013-01-23 21:12:00,
2013-01-23 13:27:00,74.8,41.3,29.88,SW,225,0.0,-999.0,30,-99.99,,,0.00,Acu-Link.com,2013-01-23 21:27:00,
2013-01-23 13:42:00,75.0,41.5,29.89,WSW,247,0.0,-999.0,30,-99.99,,,0.00,Acu-Link.com,2013-01-23 21:42:00,
2013-01-23 13:57:00,74.8,39.5,29.89,West,270,2.2,-999.0,28,-99.99,,,0.00,Acu-Link.com,2013-01-23 21:57:00,
2013-01-23 14:12:00,74.3,38.1,29.88,West,270,0.0,-999.0,27,-99.99,,,0.00,Acu-Link.com,2013-01-23 22:12:00,
2013-01-23 14:27:00,73.8,42.1,29.88,WSW,247,0.0,-999.0,32,-99.99,,,0.00,Acu-Link.com,2013-01-23 22:27:00,
2013-01-23 14:43:00,72.7,41.1,29.88,West,270,0.0,-999.0,32,-99.99,,,0.00,Acu-Link.com,2013-01-23 22:43:00,
2013-01-23 14:58:00,73.0,40.6,29.89,SSW,202,1.1,-999.0,31,-99.99,,,0.00,Acu-Link.com,2013-01-23 22:58:00,
2013-01-23 15:13:00,72.5,39.3,29.88,NW,315,2.2,-999.0,30,-99.99,,,0.00,Acu-Link.com,2013-01-23 23:13:00,
2013-01-23 15:28:00,72.1,38.9,29.89,West,270,0.0,-999.0,30,-99.99,,,0.00,Acu-Link.com,2013-01-23 23:28:00,
2013-01-23 15:43:00,70.9,39.6,29.89,WNW,292,0.0,-999.0,32,-99.99,,,0.00,Acu-Link.com,2013-01-23 23:43:00,
2013-01-23 15:58:00,70.0,39.6,29.90,WNW,292,0.0,-999.0,33,-99.99,,,0.00,Acu-Link.com,2013-01-23 23:58:00,
2013-01-23 16:13:00,69.1,38.8,29.89,West,270,0.0,-999.0,33,-99.99,,,0.00,Acu-Link.com,2013-01-24 00:13:00,
2013-01-23 16:28:00,68.0,40.0,29.90,WNW,292,0.0,-999.0,36,-99.99,,,0.00,Acu-Link.com,2013-01-24 00:28:00,
2013-01-23 16:43:00,66.9,39.1,29.89,WSW,247,0.0,-999.0,36,-99.99,,,0.00,Acu-Link.com,2013-01-24 00:43:00,
2013-01-23 16:59:00,65.8,38.8,29.89,NE,45,0.0,-999.0,37,-99.99,,,0.00,Acu-Link.com,2013-01-24 00:59:00,
2013-01-23 17:14:00,65.1,36.8,29.90,North,0,0.0,-999.0,35,-99.99,,,0.00,Acu-Link.com,2013-01-24 01:14:00,
2013-01-23 17:29:00,65.3,35.5,29.90,ESE,112,0.0,-999.0,33,-99.99,,,0.00,Acu-Link.com,2013-01-24 01:29:00,
2013-01-23 17:44:00,64.9,35.9,29.91,NNE,22,1.7,-999.0,34,-99.99,,,0.00,Acu-Link.com,2013-01-24 01:44:00,
2013-01-23 17:59:00,64.6,34.8,29.92,NW,315,2.2,-999.0,33,-99.99,,,0.00,Acu-Link.com,2013-01-24 01:59:00,
2013-01-23 18:14:00,64.4,34.7,29.91,SSW,202,0.0,-999.0,33,-99.99,,,0.00,Acu-Link.com,2013-01-24 02:14:00,
2013-01-23 18:29:00,64.2,33.7,29.92,SW,225,0.0,-999.0,32,-99.99,,,0.00,Acu-Link.com,2013-01-24 02:29:00,
2013-01-23 18:44:00,63.7,34.8,29.92,WSW,247,0.0,-999.0,34,-99.99,,,0.00,Acu-Link.com,2013-01-24 02:44:00,
2013-01-23 18:59:00,62.8,35.4,29.92,East,90,0.0,-999.0,36,-99.99,,,0.00,Acu-Link.com,2013-01-24 02:59:00,
2013-01-23 19:15:00,62.1,35.5,29.93,ENE,67,0.0,-999.0,37,-99.99,,,0.00,Acu-Link.com,2013-01-24 03:15:00,
2013-01-23 19:30:00,61.5,35.0,29.93,South,180,0.0,-999.0,37,-99.99,,,0.00,Acu-Link.com,2013-01-24 03:30:00,
2013-01-23 19:45:00,61.7,35.2,29.91,SSE,157,0.0,-999.0,37,-99.99,,,0.00,Acu-Link.com,2013-01-24 03:45:00,
2013-01-23 20:00:00,61.5,35.7,29.93,SSE,157,0.0,-999.0,38,-99.99,,,0.00,Acu-Link.com,2013-01-24 04:00:00,
2013-01-23 20:15:00,61.0,37.1,29.93,NE,45,1.7,-999.0,41,-99.99,,,0.00,Acu-Link.com,2013-01-24 04:15:00,
2013-01-23 20:30:00,61.3,35.5,29.91,NNW,337,4.2,-999.0,38,-99.99,,,0.00,Acu-Link.com,2013-01-24 04:30:00,
2013-01-23 20:45:00,63.9,37.1,29.89,NNW,337,6.3,-999.0,37,-99.99,,,0.00,Acu-Link.com,2013-01-24 04:45:00,
2013-01-23 21:15:00,65.8,41.4,29.91,SW,225,1.7,-999.0,41,-99.99,,,0.00,Acu-Link.com,2013-01-24 05:15:00,
2013-01-23 21:30:00,63.5,36.8,29.93,SW,225,0.0,-999.0,37,-99.99,,,0.00,Acu-Link.com,2013-01-24 05:30:00,
2013-01-23 21:46:00,62.4,35.8,29.95,ESE,112,0.0,-999.0,37,-99.99,,,0.00,Acu-Link.com,2013-01-24 05:46:00,
2013-01-23 22:01:00,61.3,38.0,29.95,WSW,247,0.0,-999.0,42,-99.99,,,0.00,Acu-Link.com,2013-01-24 06:01:00,
2013-01-23 22:16:00,60.3,40.0,29.96,SW,225,0.0,-999.0,47,-99.99,,,0.00,Acu-Link.com,2013-01-24 06:16:00,
2013-01-23 22:31:00,59.4,40.2,29.97,SSW,202,0.0,-999.0,49,-99.99,,,0.00,Acu-Link.com,2013-01-24 06:31:00,
2013-01-23 22:46:00,58.1,42.9,29.97,West,270,1.7,-999.0,57,-99.99,,,0.00,Acu-Link.com,2013-01-24 06:46:00,
2013-01-23 23:01:00,57.4,44.5,29.97,NE,45,3.2,-999.0,62,-99.99,,,0.00,Acu-Link.com,2013-01-24 07:01:00,
2013-01-23 23:16:00,56.8,45.2,29.97,ESE,112,2.2,-999.0,65,-99.99,,,0.00,Acu-Link.com,2013-01-24 07:16:00,
2013-01-23 23:31:00,56.1,47.2,29.97,West,270,0.0,-999.0,72,-99.99,,,0.00,Acu-Link.com,2013-01-24 07:31:00,
2013-01-23 23:46:00,55.0,49.3,29.98,NNW,337,0.0,-999.0,81,-99.99,,,0.00,Acu-Link.com,2013-01-24 07:46:00,